Terug naar catalogus

STARLINK-30793

ActiefCommunicatieVLEO
NORAD 58185·PAYLOAD·🇺🇸 United States

Gelanceerd Oct 30, 2023 vanaf Cape Canaveral Space Force Station

Loading…

Volgende Passages (komende 24 uur)

TLE

VersSource: CelesTrak SupGP

Epoch: Sep 15, 2026, 02:05 UTC

1 58185C 23167L   26258.08729167  .00051707  00000+0  18728-2 0  2584
2 58185  43.0028 153.7821 0001447 261.4610   2.8394 15.27554031    19

Volg STARLINK-30793 in realtime met AllMySat

Download on the App Store